EW6005 Weather Reports


Display with metric or nautical units.
time (UTC)temp
F
wind
direction
speed
MPH
gust
MPH
rain 1hr
in
rain 24hr
in
rain mn
in
humidity
%
barometer
mb
20260901185950 88 69 0.0 0.0 0.00 0.18 0.01 80 1000.1
20260901185451 88 0 0.0 0.0 0.00 0.18 0.01 79 1000.2
20260901184949 88 0 0.0 0.0 0.00 0.18 0.01 80 1000.2
20260901184450 88 27 0.0 0.0 0.00 0.18 0.01 81 1000.1
20260901183950 87 292 0.0 0.0 0.00 0.18 0.01 81 1000.2
20260901183450 87 284 0.0 0.0 0.00 0.18 0.01 82 1000.3
20260901182950 87 41 0.0 0.0 0.00 0.18 0.01 83 1000.5
20260901182712 87 0 0.0 0.0 0.00 0.18 0.01 83 1000.6
20260901181952 87 0 0.0 1.0 0.00 0.18 0.01 84 1000.6
20260901181707 86 0 0.0 1.0 0.00 0.18 0.01 83 1000.7
20260901180946 86 0 0.0 0.0 0.00 0.18 0.01 85 1000.8
20260901180447 86 0 0.0 0.0 0.00 0.18 0.01 85 1000.9
20260901180205 86 0 0.0 2.0 0.00 0.18 0.01 85 1000.9
20260901175446 86 17 0.0 2.0 0.00 0.18 0.01 85 1001.0
20260901175215 85 348 0.0 2.0 0.00 0.18 0.01 86 1001.0
20260901174446 85 289 0.0 2.0 0.00 0.18 0.01 86 1001.2
20260901173946 85 0 0.0 2.0 0.00 0.18 0.01 87 1001.2
20260901173446 85 40 0.0 2.0 0.00 0.18 0.01 87 1001.4
20260901172941 85 36 0.0 2.0 0.00 0.18 0.01 88 1001.5
20260901172442 85 0 0.0 0.0 0.00 0.18 0.01 89 1001.6
20260901171942 85 0 0.0 0.0 0.00 0.18 0.01 89 1001.7
20260901171443 85 0 0.0 1.0 0.00 0.18 0.01 90 1001.8
20260901171202 84 283 0.0 2.0 0.00 0.18 0.01 89 1001.9
20260901170442 84 0 0.0 2.0 0.00 0.18 0.01 90 1002.0
20260901165942 84 31 0.0 1.0 0.00 0.18 0.01 90 1002.0
20260901165442 84 31 0.0 1.0 0.00 0.18 0.01 91 1002.1
20260901164942 84 32 0.0 1.0 0.00 0.18 0.01 91 1002.1
20260901164438 84 325 0.0 0.0 0.00 0.18 0.01 91 1002.1
20260901164205 84 315 0.0 0.0 0.00 0.18 0.01 92 1002.0
20260901163438 84 314 0.0 0.0 0.00 0.18 0.01 91 1002.0
20260901162938 84 314 0.0 0.0 0.00 0.18 0.01 93 1002.0
20260901162437 84 0 0.0 2.0 0.00 0.18 0.01 93 1002.0
20260901161937 83 311 1.0 2.0 0.00 0.18 0.01 93 1002.0
20260901161438 83 275 0.0 2.0 0.00 0.18 0.01 93 1001.9
20260901160939 83 70 0.0 0.0 0.00 0.18 0.01 94 1001.9
20260901160657 83 0 0.0 0.0 0.00 0.18 0.01 94 1001.9
20260901155934 83 0 0.0 0.0 0.00 0.18 0.01 95 1001.9
20260901155434 83 0 0.0 0.0 0.00 0.18 0.01 95 1001.9
20260901154934 82 0 0.0 0.0 0.00 0.18 0.01 95 1001.9
20260901154434 82 0 0.0 0.0 0.00 0.18 0.01 96 1001.8
20260901153934 82 0 0.0 0.0 0.00 0.18 0.01 96 1001.8
20260901153652 82 0 0.0 0.0 0.00 0.18 0.01 96 1001.9
20260901152934 82 0 0.0 0.0 0.00 0.18 0.01 97 1002.0
20260901152434 81 0 0.0 0.0 0.00 0.18 0.01 97 1002.0
20260901152205 81 0 0.0 0.0 0.00 0.18 0.01 97 1002.0
20260901151430 81 0 0.0 0.0 0.00 0.18 0.01 97 1002.0
20260901150930 81 0 0.0 0.0 0.00 0.18 0.01 98 1001.9
20260901150430 81 0 0.0 0.0 0.00 0.18 0.01 98 1001.9
20260901145930 81 0 0.0 0.0 0.00 0.18 0.01 98 1002.0
20260901145431 81 0 0.0 0.0 0.00 0.18 0.01 99 1002.0
20260901144929 80 0 0.0 0.0 0.00 0.18 0.01 98 1002.0
20260901144431 80 0 0.0 0.0 0.00 0.18 0.01 99 1002.0
20260901143930 80 0 0.0 0.0 0.00 0.18 0.01 99 1002.1
20260901143430 80 0 0.0 0.0 0.00 0.18 0.01 99 1002.1
20260901142929 80 0 0.0 0.0 0.00 0.18 0.01 99 1002.1
20260901142430 80 0 0.0 0.0 0.00 0.18 0.01 99 1002.1
20260901141930 80 0 0.0 0.0 0.00 0.18 0.01 99 1002.0
20260901141430 80 0 0.0 2.0 0.00 0.18 0.01 99 1002.0
20260901140930 79 0 0.0 2.0 0.00 0.18 0.01 99 1002.0
20260901140431 79 0 0.0 0.0 0.00 0.18 0.01 99 1002.1
20260901140418 79 0 0.0 0.0 0.00 0.18 0.01 99 1002.1
20260901135428 79 0 0.0 0.0 0.00 0.18 0.01 99 1002.2
20260901134929 79 0 0.0 0.0 0.00 0.18 0.01 99 1002.0
20260901134426 79 0 0.0 0.0 0.00 0.18 0.01 99 1002.1
20260901133925 78 0 0.0 0.0 0.00 0.18 0.01 99 1002.0
20260901133644 78 0 0.0 0.0 0.00 0.18 0.01 99 1001.9
20260901132920 78 0 0.0 0.0 0.00 0.18 0.01 99 1002.0
20260901132420 78 0 0.0 0.0 0.00 0.18 0.01 99 1001.9
20260901131918 77 0 0.0 0.0 0.00 0.18 0.01 99 1001.9
20260901131416 77 0 0.0 0.0 0.00 0.18 0.01 98 1001.9
20260901130914 77 0 0.0 0.0 0.00 0.18 0.01 98 1001.7
20260901130631 77 0 0.0 0.0 0.00 0.18 0.01 98 1001.7
20260901125907 77 0 0.0 0.0 0.00 0.18 0.01 98 1001.8
20260901125408 77 0 0.0 0.0 0.00 0.18 0.01 98 1001.7
20260901124907 77 0 0.0 0.0 0.00 0.18 0.01 98 1001.6
20260901124402 77 0 0.0 0.0 0.00 0.18 0.01 97 1001.6
20260901124123 77 0 0.0 0.0 0.00 0.18 0.01 97 1001.6
20260901123621 77 0 0.0 0.0 0.00 0.18 0.01 97 1001.5
20260901122858 77 0 0.0 0.0 0.00 0.18 0.01 97 1001.5
20260901122356 77 0 0.0 0.0 0.00 0.18 0.01 97 1001.4
20260901121855 77 0 0.0 0.0 0.00 0.18 0.01 97 1001.2
20260901121356 77 0 0.0 0.0 0.00 0.18 0.01 97 1001.2
20260901120852 77 0 0.0 0.0 0.00 0.18 0.01 97 1001.1
20260901120353 77 0 0.0 0.0 0.00 0.18 0.01 97 1001.0
20260901115941 77 0 0.0 0.0 0.00 0.18 0.01 97 1001.1
20260901114848 77 0 0.0 0.0 0.00 0.18 0.01 97 1001.1
20260901114342 77 0 0.0 0.0 0.00 0.18 0.01 97 1001.0
20260901113842 77 0 0.0 0.0 0.00 0.18 0.01 97 1001.0
20260901113339 77 0 0.0 0.0 0.00 0.18 0.01 97 1001.0
20260901112837 77 0 0.0 0.0 0.00 0.18 0.01 97 1000.9
20260901112337 77 0 0.0 0.0 0.00 0.18 0.01 97 1000.9
20260901111836 77 0 0.0 0.0 0.00 0.18 0.01 97 1000.9
20260901111551 77 0 0.0 0.0 0.00 0.18 0.01 97 1000.9
20260901111536 77 360 0.0 0.0 0.00 0.18 0.01 97 1008.7
20260901110834 77 0 0.0 0.0 0.00 0.18 0.01 97 1001.0
20260901110334 77 0 0.0 0.0 0.00 0.18 0.01 97 1000.9
20260901105833 77 0 0.0 0.0 0.00 0.18 0.01 97 1000.9
20260901105557 77 0 0.0 0.0 0.00 0.18 0.01 97 1000.9
20260901104830 77 0 0.0 0.0 0.00 0.18 0.01 97 1000.8
20260901104329 77 0 0.0 0.0 0.00 0.18 0.01 97 1000.8
20260901103829 77 0 0.0 0.0 0.00 0.18 0.01 96 1000.8
20260901103326 77 0 0.0 0.0 0.00 0.18 0.01 96 1000.7
20260901102827 77 0 0.0 0.0 0.00 0.18 0.01 96 1000.8
20260901102325 77 0 0.0 0.0 0.00 0.18 0.01 96 1000.7
20260901101825 77 0 0.0 0.0 0.00 0.18 0.01 96 1000.7
20260901101321 77 0 0.0 0.0 0.00 0.18 0.01 96 1000.7
20260901100821 77 0 0.0 0.0 0.00 0.18 0.01 96 1000.6
20260901100321 77 0 0.0 0.0 0.00 0.18 0.01 96 1000.6
20260901095818 77 0 0.0 0.0 0.00 0.18 0.01 96 1000.6
20260901095318 78 0 0.0 0.0 0.00 0.18 0.01 96 1000.6
20260901094819 78 0 0.0 0.0 0.00 0.18 0.01 96 1000.7
20260901094320 78 0 0.0 0.0 0.00 0.18 0.01 96 1000.7
20260901094044 78 0 0.0 0.0 0.00 0.18 0.01 96 1000.7
20260901093318 78 0 0.0 0.0 0.00 0.18 0.01 96 1000.7
20260901092817 78 0 0.0 0.0 0.00 0.18 0.01 96 1000.6
20260901092317 78 0 0.0 0.0 0.00 0.18 0.01 96 1000.6
20260901091818 78 0 0.0 0.0 0.00 0.18 0.01 96 1000.6
20260901091538 78 0 0.0 0.0 0.00 0.18 0.01 96 1000.7
20260901090817 78 0 0.0 0.0 0.00 0.18 0.01 96 1000.8
20260901090542 78 0 0.0 0.0 0.00 0.18 0.01 96 1000.8
20260901085818 78 0 0.0 0.0 0.00 0.18 0.01 96 1000.8
20260901085317 78 0 0.0 0.0 0.00 0.18 0.01 96 1000.8
20260901084817 78 0 0.0 0.0 0.00 0.18 0.01 96 1000.8
20260901084318 78 0 0.0 0.0 0.00 0.18 0.01 96 1000.9
20260901084041 78 0 0.0 0.0 0.00 0.18 0.01 96 1000.9
20260901083317 78 0 0.0 0.0 0.00 0.18 0.01 96 1000.9
20260901082817 78 0 0.0 0.0 0.00 0.18 0.01 96 1000.9
20260901082318 78 0 0.0 0.0 0.00 0.18 0.01 96 1000.9
20260901081819 78 0 0.0 0.0 0.00 0.18 0.01 96 1000.8
20260901081317 78 0 0.0 0.0 0.00 0.18 0.01 96 1000.9
20260901080818 79 0 0.0 0.0 0.00 0.18 0.01 96 1000.9
20260901080313 79 0 0.0 0.0 0.01 0.18 0.01 96 1000.9
20260901075813 79 0 0.0 0.0 0.01 0.18 0.01 96 1001.0
20260901075312 79 0 0.0 0.0 0.01 0.18 0.01 96 1001.0
20260901075032 79 0 0.0 0.0 0.01 0.18 0.01 96 1000.9
20260901074315 79 0 0.0 0.0 0.01 0.18 0.01 96 1001.0
20260901073814 79 0 0.0 0.0 0.01 0.18 0.01 96 1000.9
20260901073313 79 0 0.0 0.0 0.01 0.18 0.01 96 1001.0
20260901072813 79 0 0.0 0.0 0.01 0.18 0.01 96 1001.0
20260901072313 79 0 0.0 0.0 0.01 0.18 0.01 95 1001.0
20260901071809 79 0 0.0 0.0 0.01 0.18 0.01 95 1001.0
20260901071309 79 0 0.0 0.0 0.01 0.18 0.01 95 1001.1
20260901070809 79 0 0.0 0.0 0.01 0.18 0.01 95 1001.0
20260901070309 79 0 0.0 0.0 0.00 0.17 0.00 95 1001.0
20260901065809 79 0 0.0 0.0 0.00 0.17 0.00 95 1001.0
20260901065309 79 0 0.0 0.0 0.00 0.17 0.00 95 1001.0
20260901064808 79 0 0.0 0.0 0.00 0.17 0.00 95 1001.0
20260901064308 79 0 0.0 0.0 0.00 0.17 0.00 95 1001.1
20260901064031 79 0 0.0 0.0 0.00 0.17 0.00 95 1001.1
20260901063525 79 0 0.0 0.0 0.00 0.17 0.00 95 1001.1
20260901062805 79 0 0.0 0.0 0.00 0.17 0.00 95 1001.2
20260901062309 79 0 0.0 0.0 0.00 0.17 0.00 95 1001.2
20260901061805 79 0 0.0 0.0 0.00 0.17 0.00 95 1001.2
20260901061305 79 0 0.0 0.0 0.00 0.17 0.00 95 1001.3
20260901060804 79 0 0.0 0.0 0.00 0.17 0.00 95 1001.3
20260901060305 79 0 0.0 0.0 0.00 0.17 0.00 95 1001.3
20260901060027 79 0 0.0 0.0 0.00 0.17 0.00 95 1001.3
20260901055306 79 0 0.0 0.0 0.00 0.17 0.00 95 1001.3
20260901054801 79 0 0.0 0.0 0.00 0.17 0.00 95 1001.2
20260901054301 79 0 0.0 0.0 0.00 0.17 0.00 95 1001.2
20260901053800 79 0 0.0 0.0 0.00 0.17 0.00 94 1001.2
20260901053300 79 0 0.0 0.0 0.00 0.17 0.00 94 1001.1
20260901052802 79 0 0.0 0.0 0.00 0.17 0.00 94 1001.1
20260901052306 80 0 0.0 0.0 0.00 0.17 0.00 94 1001.1
20260901051802 80 0 0.0 0.0 0.00 0.17 0.00 94 1001.1
20260901051302 80 0 0.0 0.0 0.00 0.17 0.00 94 1001.0
20260901050803 80 0 0.0 0.0 0.00 0.17 0.00 94 1001.0
20260901050259 80 0 0.0 0.0 0.00 0.17 0.00 94 1000.9
20260901045753 80 0 0.0 0.0 0.00 0.17 0.17 94 1000.9
20260901045253 80 0 0.0 0.0 0.00 0.17 0.17 94 1000.9
20260901044752 80 0 0.0 0.0 0.00 0.17 0.17 94 1000.8
20260901044510 80 0 0.0 0.0 0.00 0.17 0.17 94 1000.9
20260901043747 80 0 0.0 0.0 0.00 0.17 0.17 94 1000.8
20260901043245 80 0 0.0 0.0 0.00 0.17 0.17 94 1000.8
20260901043008 80 0 0.0 0.0 0.00 0.17 0.17 94 1000.8
20260901042721 80 0 0.0 0.0 0.00 0.17 0.17 94 1000.8
20260901041742 80 0 0.0 0.0 0.00 0.17 0.17 94 1000.7
20260901041241 81 0 0.0 0.0 0.00 0.17 0.17 94 1000.8
20260901041221 81 0 0.0 0.0 0.00 0.17 0.17 94 1000.7
20260901040237 81 0 0.0 0.0 0.00 0.17 0.17 94 1000.6
20260901035738 81 0 0.0 0.0 0.00 0.17 0.17 94 1000.5
20260901035709 81 0 0.0 0.0 0.00 0.17 0.17 94 1000.5
20260901034733 80 0 0.0 0.0 0.00 0.17 0.17 93 1000.4
20260901034233 80 0 0.0 0.0 0.00 0.17 0.17 93 1000.4
20260901033735 80 0 0.0 0.0 0.00 0.17 0.17 93 1000.3
20260901033229 80 0 0.0 0.0 0.00 0.17 0.17 93 1000.2
20260901032730 81 0 0.0 0.0 0.00 0.17 0.17 93 1000.2
20260901032230 81 0 0.0 0.0 0.00 0.17 0.17 92 1000.1
20260901031948 81 0 0.0 0.0 0.00 0.17 0.17 93 1000.0
20260901031444 81 0 0.0 0.0 0.00 0.17 0.17 92 1000.0
20260901030725 81 0 0.0 0.0 0.00 0.17 0.17 92 1000.0
20260901030227 81 0 0.0 0.0 0.00 0.17 0.17 93 999.9
20260901025725 82 0 0.0 0.0 0.00 0.17 0.17 93 999.8
20260901025225 82 0 0.0 0.0 0.00 0.17 0.17 92 999.8
20260901024726 82 0 0.0 0.0 0.00 0.17 0.17 92 999.7
20260901024225 82 0 0.0 0.0 0.00 0.17 0.17 92 999.7
20260901023725 82 0 0.0 0.0 0.00 0.17 0.17 92 999.8
20260901023227 82 0 0.0 0.0 0.00 0.17 0.17 92 999.7
20260901022725 82 0 0.0 0.0 0.00 0.17 0.17 92 999.7
20260901022225 82 0 0.0 0.0 0.00 0.17 0.17 92 999.5
20260901021725 82 0 0.0 0.0 0.00 0.17 0.17 92 999.5
20260901021225 82 0 0.0 0.0 0.00 0.17 0.17 92 999.5
20260901020726 82 0 0.0 0.0 0.00 0.17 0.17 92 999.5
20260901020225 82 0 0.0 0.0 0.00 0.17 0.17 92 999.5
20260901015725 82 0 0.0 0.0 0.00 0.17 0.17 92 999.4
20260901015225 82 0 0.0 0.0 0.00 0.17 0.17 92 999.3
20260901014726 82 0 0.0 0.0 0.00 0.17 0.17 91 999.3
20260901014225 82 0 0.0 0.0 0.00 0.17 0.17 91 999.3
20260901013726 82 0 0.0 0.0 0.00 0.17 0.17 91 999.2
20260901013450 82 0 0.0 0.0 0.00 0.17 0.17 91 999.2
20260901012947 82 0 0.0 0.0 0.00 0.17 0.17 91 999.2
20260901012226 82 0 0.0 0.0 0.00 0.17 0.17 90 999.2
20260901011725 82 0 0.0 0.0 0.00 0.17 0.17 90 999.2
20260901011226 82 0 0.0 0.0 0.00 0.17 0.17 90 999.1
20260901010725 82 0 0.0 0.0 0.00 0.17 0.17 90 999.1
20260901010225 82 0 0.0 0.0 0.00 0.17 0.17 90 999.1
20260901005726 82 0 0.0 0.0 0.00 0.17 0.17 89 999.1
20260901005225 82 0 0.0 0.0 0.00 0.17 0.17 89 999.1
20260901004725 82 0 0.0 0.0 0.00 0.17 0.17 89 999.1
20260901004225 82 0 0.0 0.0 0.00 0.17 0.17 89 999.1
20260901003942 82 0 0.0 0.0 0.02 0.17 0.17 88 999.1
20260901003443 83 0 0.0 0.0 0.12 0.17 0.17 88 999.1
20260901002721 83 0 0.0 0.0 0.17 0.17 0.17 86 999.2
20260901002445 83 0 0.0 0.0 0.17 0.17 0.17 86 999.2
20260901001721 83 0 0.0 0.0 0.17 0.17 0.17 85 999.2
20260901001221 83 0 0.0 0.0 0.17 0.17 0.17 85 999.3
20260901000721 84 0 0.0 1.0 0.17 0.17 0.17 84 999.3
20260901000221 84 0 0.0 1.0 0.17 0.17 0.17 83 999.3
20260831235720 85 0 0.0 0.0 0.17 0.17 0.17 81 999.2
20260831235444 85 0 0.0 0.0 0.17 0.17 0.17 80 999.3
20260831234721 86 0 0.0 1.0 0.17 0.17 0.17 78 999.4
20260831234221 87 0 0.0 2.0 0.17 0.17 0.17 77 999.4
20260831233722 88 0 1.0 2.0 0.15 0.15 0.16 74 999.4
20260831233222 89 0 1.0 2.0 0.05 0.05 0.07 70 999.8
20260831232940 90 0 1.0 4.0 0.00 0.00 0.00 67 999.6
20260831232222 91 0 2.0 5.0 0.00 0.00 0.00 66 999.7
20260831231720 92 0 1.0 5.0 0.00 0.00 0.00 65 999.6
20260831231450 93 0 1.0 7.0 0.00 0.00 0.00 64 999.5
20260831230721 94 134 1.0 7.0 0.00 0.00 0.00 63 999.5
20260831230222 95 16 1.0 4.0 0.00 0.00 0.00 61 999.4
20260831225720 95 176 1.0 6.0 0.00 0.00 0.00 61 999.2
20260831225221 95 0 2.0 9.0 0.00 0.00 0.00 61 999.1
20260831224721 95 0 3.0 9.0 0.00 0.00 0.00 60 999.1
20260831224221 95 196 3.0 8.0 0.00 0.00 0.00 60 999.0
20260831223949 95 0 3.0 10.0 0.00 0.00 0.00 61 999.1
20260831223710 95 0 4.0 10.0 0.00 0.00 0.00 61 999.2
20260831222941 95 0 4.0 9.0 0.00 0.00 0.00 61 999.2
20260831222221 95 0 2.0 9.0 0.00 0.00 0.00 62 999.1
20260831221721 95 0 3.0 11.0 0.00 0.00 0.00 61 999.1
20260831221220 95 0 4.0 12.0 0.00 0.00 0.00 61 999.1
20260831220942 95 0 3.0 12.0 0.00 0.00 0.00 61 999.1
20260831220221 96 0 3.0 9.0 0.00 0.00 0.00 59 999.0
20260831215720 96 169 2.0 9.0 0.00 0.00 0.00 58 999.0
20260831215221 96 194 2.0 6.0 0.00 0.00 0.00 58 999.0
20260831214721 96 0 3.0 10.0 0.00 0.00 0.00 57 999.1
20260831214219 97 0 3.0 10.0 0.00 0.00 0.00 56 999.1
20260831213719 97 198 2.0 9.0 0.00 0.00 0.00 53 999.2
20260831213218 98 120 2.0 6.0 0.00 0.00 0.00 55 999.2
20260831212940 98 0 3.0 8.0 0.00 0.00 0.00 54 999.2
20260831212216 97 163 3.0 8.0 0.00 0.00 0.00 54 999.2
20260831211716 97 0 2.0 5.0 0.00 0.00 0.00 56 999.2
20260831211217 96 0 1.0 4.0 0.00 0.00 0.00 55 999.2
20260831210717 96 173 1.0 3.0 0.00 0.00 0.00 56 999.3
20260831210654 96 127 0.0 3.0 0.00 0.00 0.00 55 999.3
20260831205718 97 143 0.0 0.0 0.00 0.00 0.00 56 999.4
20260831205435 97 125 1.0 3.0 0.00 0.00 0.00 55 999.5
20260831204709 97 146 2.0 5.0 0.00 0.00 0.00 55 999.5
20260831204434 97 0 1.0 5.0 0.00 0.00 0.00 54 999.6
20260831204021 97 0 1.0 3.0 0.00 0.00 0.00 56 999.6
20260831202708 98 24 1.0 3.0 0.00 0.00 0.00 55 999.8
20260831202207 98 329 1.0 4.0 0.00 0.00 0.00 55 999.8
20260831201705 98 36 1.0 4.0 0.00 0.00 0.00 55 999.9
20260831201204 97 26 1.0 3.0 0.00 0.00 0.00 56 1000.0
20260831200704 97 32 1.0 3.0 0.00 0.00 0.00 55 1000.1
20260831200204 97 59 2.0 6.0 0.00 0.00 0.00 57 1000.2
20260831195700 97 0 2.0 6.0 0.00 0.00 0.00 57 1000.2
20260831195159 97 188 2.0 6.0 0.00 0.00 0.00 56 1000.3
20260831194700 97 0 3.0 9.0 0.00 0.00 0.00 56 1000.4
20260831194157 97 0 3.0 9.0 0.00 0.00 0.00 56 1000.4
20260831193656 98 0 2.0 5.0 0.00 0.00 0.00 56 1000.5
20260831193157 98 227 1.0 5.0 0.00 0.00 0.00 57 1000.7
20260831192658 97 109 1.0 3.0 0.00 0.00 0.00 59 1000.8
20260831192152 97 250 1.0 3.0 0.00 0.00 0.00 57 1000.8
20260831191651 97 17 1.0 2.0 0.00 0.00 0.00 57 1001.0
20260831191152 97 147 1.0 4.0 0.00 0.00 0.00 59 1001.1
20260831190649 97 0 1.0 4.0 0.00 0.00 0.00 58 1001.0